Weather History for KLVK - August, 2013

Change the Weather History Date:

Friday, August 9, 2013

  Actual Average Record
Temperature  
Mean Temperature 68 °F 72 °F  
Max Temperature 77 °F 88 °F 107 °F (1984)
Min Temperature 58 °F 57 °F 46 °F (1943)
Degree Days  
Heating Degree Days 0 0  
Month to date heating degree days 0 0  
Since 1 June heating degree days 5 36  
Since 1 July heating degree days 0 4  
Cooling Degree Days 3 7  
Month to date cooling degree days 36 71  
Year to date cooling degree days 604 465  
Since 1 June cooling degree days 503 412  
Growing Degree Days 17 (Base 50)    
Moisture  
Dew Point 53 °F    
Average Humidity 65    
Maximum Humidity 87    
Minimum Humidity 43    
Precipitation  
Precipitation 0.00 in 0.00 in 0.00 in (2015)
Month to date precipitation 0.00 0.00  
Year to date precipitation 2.12 9.90  
Since 1 July precipitation 0.00  
Sea Level Pressure  
Sea Level Pressure 29.95 in    
Wind  
Wind Speed 11 mph (WNW)    
Max Wind Speed 20 mph    
Max Gust Speed 24 mph    
Visibility 10 miles    
Events      
T = Trace of Precipitation, MM = Missing Value Source: NWS Daily Summary

Daily Weather History Graph

Daily Weather History Graph

Search for Another Location

Airport or City:

Trip Planner

Search our weather history database for the weather conditions in past years. The results will help you decide how hot, cold, wet, or windy it might be!

Date:

Astronomy

Aug. 09, 2013 Rise Set
Actual Time 6:18 AM PDT 8:06 PM PDT
Civil Twilight 5:49 AM PDT 8:35 PM PDT
Nautical Twilight 5:15 AM PDT 9:09 PM PDT
Astronomical Twilight 4:38 AM PDT 9:45 PM PDT
Moon 9:05 AM PDT (8/9) 9:24 PM PDT (8/9)
Length of Visible Light 14h 45m
Length of Day
13h 48m
Waxing Crescent, 8% of the Moon is Illuminated
Aug 9
Waxing Crescent
Aug 14
First Quarter
Aug 20
Full
Aug 28
Last Quarter
Sep 5
New

Hourly Weather History & Observations

Time (PDT) Temp. Dew Point Humidity Pressure Visibility Wind Dir Wind Speed Gust Speed Precip Events Conditions
12:20 AM 59.0 °F 53.6 °F 82% 29.97 in 10.0 mi West 8.1 mph - N/A   Overcast
12:53 AM 59.0 °F 54.0 °F 83% 29.96 in 10.0 mi WNW 8.1 mph - N/A   Overcast
1:53 AM 57.9 °F 53.1 °F 84% 29.94 in 10.0 mi WNW 8.1 mph - N/A   Overcast
2:04 AM 57.2 °F 53.6 °F 88% 29.95 in 10.0 mi WNW 9.2 mph - N/A   Overcast
2:53 AM 57.9 °F 53.1 °F 84% 29.94 in 10.0 mi WNW 9.2 mph - N/A   Overcast
3:53 AM 57.9 °F 53.1 °F 84% 29.94 in 10.0 mi West 10.4 mph - N/A   Overcast
4:53 AM 57.9 °F 52.0 °F 81% 29.92 in 10.0 mi WNW 10.4 mph - N/A   Overcast
5:53 AM 57.9 °F 51.1 °F 78% 29.93 in 10.0 mi WNW 10.4 mph - N/A   Overcast
6:53 AM 57.9 °F 52.0 °F 81% 29.94 in 10.0 mi WSW 5.8 mph - N/A   Overcast
7:53 AM 59.0 °F 52.0 °F 78% 29.95 in 10.0 mi South 6.9 mph - N/A   Overcast
8:53 AM 61.0 °F 52.0 °F 72% 29.96 in 10.0 mi WSW 5.8 mph - N/A   Overcast
9:03 AM 60.8 °F 51.8 °F 72% 29.96 in 10.0 mi West 4.6 mph - N/A   Overcast
9:53 AM 64.0 °F 54.0 °F 70% 29.96 in 10.0 mi West 8.1 mph - N/A   Mostly Cloudy
10:48 AM 66.2 °F 53.6 °F 64% 29.96 in 10.0 mi WNW 8.1 mph - N/A   Scattered Clouds
10:53 AM 66.9 °F 54.0 °F 63% 29.95 in 10.0 mi WNW 10.4 mph - N/A   Partly Cloudy
11:53 AM 71.1 °F 53.1 °F 53% 29.95 in 10.0 mi WNW 13.8 mph - N/A   Partly Cloudy
12:53 PM 71.1 °F 53.1 °F 53% 29.94 in 10.0 mi WNW 16.1 mph - N/A   Clear
1:53 PM 73.9 °F 53.1 °F 48% 29.94 in 10.0 mi NW 13.8 mph - N/A   Clear
2:53 PM 75.9 °F 54.0 °F 46% 29.92 in 10.0 mi WNW 17.3 mph - N/A   Clear
3:53 PM 77.0 °F 54.0 °F 45% 29.91 in 10.0 mi WNW 15.0 mph - N/A   Clear
4:53 PM 77.0 °F 54.0 °F 45% 29.91 in 10.0 mi West 17.3 mph - N/A   Clear
5:53 PM 75.0 °F 55.0 °F 50% 29.91 in 10.0 mi WNW 13.8 mph - N/A   Clear
6:53 PM 71.1 °F 55.0 °F 57% 29.91 in 10.0 mi WNW 11.5 mph - N/A   Clear
7:53 PM 66.0 °F 55.0 °F 68% 29.94 in 10.0 mi WNW 12.7 mph - N/A   Clear
8:53 PM 61.0 °F 54.0 °F 78% 29.96 in 10.0 mi WNW 10.4 mph - N/A   Clear
9:53 PM 60.1 °F 54.0 °F 80% 29.98 in 10.0 mi West 11.5 mph - N/A   Clear
10:53 PM 60.1 °F 54.0 °F 80% 29.98 in 10.0 mi WNW 8.1 mph - N/A   Clear
11:53 PM 59.0 °F 55.0 °F 87% 29.99 in 10.0 mi NW 8.1 mph - N/A   Clear